Location: Borotín
(49.5055°N, 14.6142°E)
Time: 11:48:21
(UTC+00:00)

MOS 1 Rocket - Pass Details

Date: 27 May 2022
Orbit: 615 x 828 km, 97.5° (Epoch: 26 June)

Event Time Altitude Azimuth Distance (km) Brightness Sun altitude
Exits shadow 01:33:17 14° 192° (SSW) 1,739 4.8 -11.3°
Maximum altitude 01:36:45 44° 262° (W) 861 3.5 -11.0°
Drops below altitude 10° 01:40:55 10° 335° (NNW) 2,010 6.1 -10.6°
Sets 01:43:14 0° 342° (NNW) 2,940 7.0 -10.4°
